Regional Weather Roundup
Issued by NWS

Home | Current Version | Previous Version | Graphics & Text | Print | Product List | Glossary On
Versions: 1 2 3 4 5 6 7 8 9 10 11 12 13 14 15 16 17 18 19 20 21 22 23 24 25 26 27 28 29 30 31 32 33 34 35 36 37 38 39 40 41 42 43 44 45 46 47 48 49 50
145
ASUS45 KTFX 021210
RWRMT
MONTANA REGIONAL WEATHER ROUNDUP
NATIONAL WEATHER SERVICE GREAT FALLS MT
600 AM MDT MON MAY 02 2016

NOTE: "FAIR" INDICATES FEW OR NO CLOUDS BELOW 12000 FEET WITH NO
SIGNIFICANT WEATHER AND/OR OBSTRUCTIONS TO VISIBILITY.

MTZ001>007-043-021300-
WEST OF THE DIVIDE

CITY           SKY/WX    TMP DP  RH WIND       PRES   REMARKS
KALISPELL      CLEAR     33  33 100 CALM      30.17R
MISSOULA       CLEAR     37  32  82 CALM      30.20R
BUTTE          CLEAR     26  23  88 SE6       30.23S WCI  19
MULLAN PASS    CLEAR     44  29  55 SE9       30.20S
ANACONDA         N/A     34  27  75 S6        30.22R WCI  29
DEER LODGE       N/A     28  27  93 CALM      30.24R
EUREKA           N/A     34  30  86 CALM      30.19R
HAMILTON         N/A     39  34  81 CALM      30.18S
PLAINS           N/A     35  30  82 CALM      30.16S
$$

MTZ008-052>055-021300-
SOUTHWEST MONTANA

CITY           SKY/WX    TMP DP  RH WIND       PRES   REMARKS
BOZEMAN        CLEAR     28  23  81 S5        30.23R
DILLON         CLEAR     35  27  72 S10       30.22R WCI  27
ENNIS          CLEAR     30  27  86 NE3       30.28R
TWIN BRIDGES     N/A     31  22  69 CALM      30.19R
$$

MTZ009-010-012-014-046-048-049-054-021300-
EAST SLOPES AND CENTRAL MONTANA

CITY           SKY/WX    TMP DP  RH WIND       PRES   REMARKS
CUT BANK       CLEAR     32  29  88 NW6       30.18R WCI  26
GREAT FALLS    PTCLDY    36  32  85 SW9       30.18S WCI  29
HELENA         CLEAR     37  31  78 W3        30.22R
CHOTEAU          N/A     37  32  81 SW8       30.18F WCI  31
CONRAD           N/A     31  31 100 E3        30.17S
$$

MTZ011-013-016-021-045-047-050-051-021300-
NORTH CENTRAL MONTANA

CITY           SKY/WX    TMP DP  RH WIND       PRES   REMARKS
HAVRE          CLEAR     35  32  88 SW8       30.16S WCI  29
LEWISTOWN      PTCLDY    34  28  79 CALM      30.18F
N BAR RANCH      N/A     36  28  75 W7G13     30.20S WCI  30
CHINOOK          N/A     36  36 100 W3        30.17R
$$

MTZ017>020-022>027-061-062-021300-
NORTHEAST MONTANA

CITY           SKY/WX    TMP DP  RH WIND       PRES   REMARKS
GLASGOW        CLEAR     41  34  76 W7        30.12S
JORDAN           N/A     36  34  92 W7        30.14F WCI  30
SIDNEY         CLOUDY    52  30  43 W20       30.06F
WOLF POINT     CLEAR     44  36  73 SW9       30.10F
PLENTYWOOD       N/A     46  34  61 W7        30.05F
POPLAR           N/A     45  36  70 W7        30.09F
SCOBEY           N/A     39  28  65 W2        30.06F
$$

MTZ028>42-056>058-021300-
SOUTHCENTRAL AND SOUTHEAST MONTANA

CITY           SKY/WX    TMP DP  RH WIND       PRES   REMARKS
BAKER          PTCLDY    39  30  70 W10       30.13F
BILLINGS       CLOUDY    39  31  72 SW10      30.20R
LIVINGSTON     CLOUDY    29  24  82 NW9       30.22S WCI  20
MILES CITY     CLEAR     38  35  89 S3        30.14S
EKALAKA          N/A     38  27  65 SE1       30.11S
FORSYTH          N/A     39  34  81 SW3       30.16R
LAUREL           N/A     34  27  76 SW2       30.17R
ROUNDUP          N/A     36  28  73 S12       30.08S WCI  28
$$

REGIONAL REPORTS...DAKOTAS

CITY           SKY/WX    TMP DP  RH WIND       PRES   REMARKS
WILLISTON      CLOUDY    49  35  58 W16       30.03F
MINOT          CLOUDY    49  36  61 SE5       29.97S
DICKINSON      CLOUDY    44  32  62 W13       30.05F
BEACH            N/A     45  32  61 W14       30.13F
CROSBY           N/A     48  34  57 W14       30.03R
WATFORD CITY   MOCLDY    50  32  50 W9        30.05S
BISMARCK       CLOUDY    45  38  76 NE8       30.06R
GRAND FORKS    MOCLDY    43  31  62 SE8       30.03F
FARGO          PTCLDY    43  33  68 S5        30.06S
BUFFALO SD       N/A     39  31  72 W9        30.06F
RAPID CITY     CLEAR     36  29  75 W10       30.15F WCI  28
$$

REGIONAL REPORTS...WYOMING/IDAHO/WASHINGTON

CITY           SKY/WX    TMP DP  RH WIND       PRES   REMARKS
GILLETTE       CLEAR     36  30  79 SW8       30.18S WCI  30
SHERIDAN       CLEAR     33  27  78 CALM      30.18S
BUFFALO WY       N/A    N/A N/A N/A MISG      30.20S
CODY           CLEAR     39  27  60 SW13      30.21R WCI  32
YELLOWSTONE LA   N/A     20  16  84 CALM      30.30S
IDAHO FALLS    CLEAR     28  22  78 N3        30.23S
SALMON         CLEAR     32  27  80 NW5       30.20S
BOISE          CLEAR     49  36  61 CALM      30.11R
SPOKANE        PTCLDY    50  40  68 CALM      30.09R
$$

REGIONAL REPORTS...ALBERTA

CITY           SKY/WX    TMP DP  RH WIND       PRES   REMARKS
EDMONTON       CLEAR     45  36  70 CALM      30.07R
CALGARY        PTCLDY    43  28  56 SW2       30.14S
LETHBRIDGE     PTCLDY    37  32  81 SW10      30.15R WCI  30
MEDICINE HAT   CLEAR     41  36  81 SW9       30.14R
WATERTON GATE    N/A     39  28  65 S10         N/A
MILK RIVER       N/A     32  30  93 NW5         N/A
ONEFOUR          N/A     39  34  81 N3          N/A
$$

REGIONAL REPORTS...SASKATCHEWAN

CITY           SKY/WX    TMP DP  RH WIND       PRES   REMARKS
SWIFT CURRENT  CLEAR     46  36  66 W14       30.09S
REGINA         PTCLDY    37  32  81 N5        30.03S
SASKATOON      PTCLDY    39  32  75 SW2       30.05R
CYPRESS HILLS    N/A     45  28  53 NW3         N/A
VAL MARIE        N/A     34  32  93 E1          N/A
ROCKGLEN         N/A     45  34  65 W13         N/A
ASSINIBOIA       N/A     37  34  87 SW1         N/A
$$




USA.gov is the U.S. government's official web portal to all federal, state and local government web resources and services.